Dewpoint
66 65 65 64 64 63 63 63 63 64 64 64 64 65 65 65 65 65 65 64 65 65 65 65 65 65 65 65 65 65 65 65 65 65 65 65 66 66 66 66 65 66 66 66 66 66 67 67 65 63 62 59 57 57 58 59 59 58 58 61 62 63 64 66 66 66 66 66 66 66 66 65 65 65 65 64 64 63 63 63 63 63 63 63 63 63 64 64 65 65 66 67 67 68 69 69 69 68 66 66 65 64 64
66 65 65 64 64 64 64 64 64 64 64 64 64 65 65 65 65 65 65 65 65 65 65 65 65 65 65 65 65 65 66 66 65 65 65 66 66 66 66 66 66 66 66 66 66 67 67 66 65 63 63 59 57 57 58 58 58 58 59 61 62 63 65 66 66 66 66 66 66 66 66 65 65 65 65 65 64 64 64 64 64 63 63 63 63 63 63 63 64 64 65 67 68 69 69 69 69 68 67 66 66 65 65
66 65 65 65 64 64 64 64 64 64 64 64 64 65 65 65 65 65 65 65 65 65 65 66 66 66 66 66 66 66 66 66 66 66 66 66 66 66 66 66 66 66 66 67 67 67 67 66 65 63 62 59 57 57 57 58 58 59 61 61 62 64 66 66 66 66 66 66 66 66 66 65 65 65 65 65 65 65 65 65 65 65 64 64 64 64 64 64 64 64 64 66 67 68 69 68 68 68 68 67 67 66 66
66 65 65 65 65 65 64 64 64 64 64 64 65 65 65 65 65 65 65 65 66 66 66 66 66 66 66 67 67 67 67 67 67 67 66 66 66 66 66 66 66 67 67 67 67 67 67 65 63 62 61 58 57 57 57 57 58 59 61 62 64 65 66 66 66 66 66 66 66 66 66 65 65 65 65 65 65 65 65 65 65 65 65 65 65 65 65 65 65 64 64 65 66 66 67 67 68 68 68 68 68 67 67
65 65 65 65 65 65 65 64 64 64 64 65 65 65 65 65 65 65 65 66 66 66 66 67 67 67 67 67 67 67 67 67 67 67 67 67 67 67 67 67 67 67 67 67 67 67 66 65 63 61 59 57 57 57 57 57 59 60 62 63 64 66 66 66 66 66 66 66 66 66 66 65 65 65 65 66 66 65 65 65 65 65 65 65 65 65 65 66 66 66 66 65 66 66 67 67 67 68 68 68 68 68 68
66 65 65 65 65 65 65 65 65 65 65 65 65 65 65 65 65 66 66 66 66 67 67 67 67 68 67 67 67 67 67 67 67 67 68 67 67 67 67 67 67 66 66 67 67 67 66 64 62 60 58 57 56 56 56 57 58 60 61 62 65 66 66 66 66 66 66 66 66 66 65 65 66 66 66 66 66 66 65 65 65 65 65 65 65 66 66 66 67 67 67 67 67 67 67 67 67 67 67 67 67 67 68
66 66 66 66 66 65 65 65 65 65 65 65 65 65 66 66 66 66 66 66 67 67 67 67 67 67 67 67 67 67 67 67 67 67 67 67 67 67 66 66 66 66 66 66 66 66 66 64 62 60 58 57 56 55 55 56 58 59 59 61 64 66 66 66 66 66 66 66 66 66 65 66 66 66 66 66 66 65 65 65 65 66 66 66 66 66 66 67 68 68 68 68 68 68 67 67 66 66 66 66 66 67 67
66 66 66 66 66 66 66 66 66 66 66 66 66 66 66 66 66 67 67 67 67 67 67 67 67 67 67 66 66 67 67 67 67 67 67 66 66 66 66 66 66 66 66 66 66 66 66 64 62 60 57 56 54 54 54 55 57 58 59 61 64 66 66 66 66 66 66 65 65 65 65 65 65 65 66 66 66 65 65 65 66 66 67 67 67 67 67 68 68 68 68 68 68 68 67 67 66 66 66 66 66 66 67
66 66 66 66 66 66 66 66 66 66 66 66 66 66 66 66 67 67 67 67 67 67 67 67 66 66 66 66 66 66 66 66 66 66 66 66 66 66 65 65 65 65 65 65 65 65 65 63 61 59 55 54 53 53 54 54 56 58 60 62 64 66 66 66 66 65 65 65 65 65 65 65 65 65 65 65 65 65 65 65 66 66 67 67 67 67 68 68 68 68 68 68 67 67 67 67 67 66 66 66 66 66 66
66 67 67 67 67 67 67 67 67 66 66 66 66 66 66 66 67 67 67 67 67 67 66 66 66 66 66 66 66 66 66 66 66 65 65 65 65 64 64 64 64 64 64 64 64 65 65 63 61 58 54 52 52 53 54 55 56 58 60 63 65 65 65 65 64 64 64 64 64 64 64 65 65 65 65 65 65 65 66 66 66 66 66 66 66 67 67 67 67 67 68 67 67 67 67 67 67 67 68 67 66 66 66
67 67 67 67 67 67 66 66 66 66 66 66 66 66 66 67 67 67 67 66 66 66 66 66 66 66 65 65 65 65 65 65 65 64 64 63 63 62 62 62 62 62 62 63 63 64 64 63 60 57 51 51 52 52 53 56 57 59 61 63 64 64 64 64 63 63 63 63 63 64 64 64 64 64 64 65 65 65 65 65 65 65 65 66 66 67 67 67 67 67 68 68 67 67 67 67 68 68 68 68 67 67 67
67 67 67 67 67 66 66 66 65 65 66 66 66 66 67 67 67 66 66 66 66 66 66 65 65 65 65 65 64 64 64 63 63 62 62 61 61 61 60 60 61 61 61 62 62 63 63 61 56 51 48 49 51 52 54 57 58 60 61 63 64 63 63 62 62 62 62 62 63 63 64 64 64 64 64 64 64 64 64 64 64 65 65 66 66 66 66 67 67 67 68 67 67 67 67 67 68 68 68 68 68 68 67
68 67 67 66 66 66 65 65 65 65 66 66 66 67 67 67 66 66 66 66 66 66 65 65 65 64 64 64 63 63 62 62 61 61 60 59 59 58 58 59 59 60 61 61 61 61 59 54 50 47 47 48 50 52 56 57 59 60 62 63 63 62 62 62 61 61 61 61 62 62 63 63 63 63 63 63 63 63 63 63 64 65 66 66 66 66 66 66 66 67 67 67 67 67 67 67 67 67 67 67 67 67 67
67 67 66 66 66 65 65 64 64 65 66 66 66 67 67 66 66 66 66 66 65 65 65 64 64 63 63 63 62 62 61 61 60 59 58 57 57 57 57 57 58 59 60 60 58 56 53 48 46 46 46 48 50 53 57 57 59 60 62 62 62 62 61 61 61 61 61 61 61 62 62 62 62 62 62 62 62 62 62 63 64 65 66 66 66 66 66 66 66 66 66 66 66 66 66 66 66 66 66 66 66 66 67
66 66 66 66 65 65 64 64 64 65 66 66 66 67 66 66 66 66 65 65 65 64 64 63 63 62 62 62 61 61 61 60 59 58 57 56 55 55 56 57 58 59 60 57 54 49 46 44 44 46 46 46 49 53 57 57 59 60 61 61 61 61 61 61 61 61 61 61 61 61 62 61 61 61 61 61 61 62 62 63 64 65 66 66 66 65 65 65 65 65 65 65 65 65 65 65 65 65 65 65 65 66 66
64 65 65 66 65 64 64 64 65 65 66 66 66 66 66 66 66 65 65 64 64 64 63 62 62 61 61 61 61 60 60 59 58 57 56 55 53 53 55 57 58 58 57 53 48 44 41 41 42 43 44 44 49 54 56 57 59 61 61 61 61 61 61 61 61 61 61 61 61 61 61 61 61 61 61 61 61 61 61 63 64 65 65 65 64 64 64 64 64 64 64 63 64 64 64 64 64 64 64 64 64 64 64
63 64 65 65 65 64 64 64 65 66 66 66 66 66 66 65 65 64 64 63 63 63 62 61 61 61 61 60 60 59 57 56 56 56 56 55 54 53 55 57 58 57 52 47 43 40 39 39 40 41 41 43 49 55 56 57 59 60 60 60 60 60 60 61 61 61 61 61 61 61 61 61 61 60 61 61 61 61 61 63 64 64 64 64 63 63 63 63 63 63 63 63 63 63 63 63 63 62 62 62 62 63 63
63 64 65 65 65 64 65 65 66 66 66 66 66 66 65 65 64 63 63 62 61 61 61 61 60 60 60 60 60 58 53 51 51 52 53 54 54 54 55 55 53 51 45 41 39 38 37 37 38 39 39 43 49 55 56 57 59 60 60 60 60 60 60 60 60 60 60 61 61 61 61 60 60 60 60 60 61 61 61 62 63 63 63 63 63 63 62 62 62 62 62 62 62 62 62 62 61 61 61 61 61 61 61
63 64 65 65 65 65 66 66 66 67 67 66 66 65 65 64 63 62 61 61 60 60 59 59 59 59 60 60 59 56 49 47 47 48 48 51 53 54 53 49 45 41 39 37 36 35 35 35 36 37 37 43 49 55 55 57 58 59 59 59 59 60 60 60 60 60 60 60 60 60 60 60 60 60 60 60 61 61 61 61 61 62 62 62 62 62 62 62 62 62 62 61 61 61 61 61 61 60 60 60 60 60 60
62 64 64 65 65 66 66 67 67 67 66 66 66 65 64 63 62 61 61 60 59 59 58 58 58 59 59 58 54 49 43 42 43 43 43 44 46 46 45 41 39 37 36 34 34 34 34 34 35 36 35 42 49 54 55 57 58 58 58 59 59 59 59 59 59 59 59 60 60 60 60 60 60 60 60 60 60 60 61 61 61 61 61 61 61 61 61 61 61 61 61 61 61 61 60 60 60 60 60 59 59 59 59
61 61 63 64 65 66 67 67 67 66 66 65 64 63 62 62 61 61 60 59 59 58 58 59 57 54 51 48 45 41 38 38 39 39 39 38 38 38 38 37 36 35 34 33 33 34 34 34 35 35 34 41 48 53 55 57 57 57 58 58 58 58 59 59 59 59 59 59 59 59 59 59 59 59 60 60 60 60 60 60 60 60 60 60 60 59 60 59 59 59 59 59 59 59 59 59 59 59 58 58 58 58 58
59 60 61 63 65 66 66 66 65 64 64 64 61 59 58 58 58 59 59 57 56 57 57 55 50 45 42 40 39 37 35 35 35 35 36 35 34 34 35 34 34 34 32 32 33 34 34 35 35 35 34 42 48 52 55 56 57 57 57 57 57 57 58 58 58 58 58 58 58 58 58 59 59 59 59 59 59 59 59 59 58 58 58 58 58 58 58 58 57 57 57 57 57 57 57 57 57 57 57 57 57 57 57
58 59 60 61 63 65 64 64 63 62 61 63 60 56 54 54 54 55 55 52 51 49 49 45 43 40 39 37 36 34 34 33 33 33 31 31 32 32 32 31 31 31 31 31 32 34 34 35 35 35 35 42 47 51 54 55 56 56 56 56 57 57 57 57 57 58 58 57 57 57 57 58 58 58 58 58 58 58 58 57 57 57 57 57 57 57 57 57 57 57 56 56 56 56 56 56 57 57 57 57 57 56 56
58 58 59 61 62 63 63 61 61 60 60 61 58 55 52 52 51 51 51 49 46 44 42 40 39 39 38 35 34 32 31 31 32 32 29 28 28 29 29 27 28 29 30 30 32 33 34 35 35 35 35 42 46 50 53 55 55 55 55 55 55 56 56 57 57 57 57 57 57 57 57 57 57 57 57 57 57 57 57 57 57 57 56 56 56 56 56 56 56 55 55 55 55 55 55 55 56 56 56 56 56 56 56
57 58 58 59 61 61 60 59 58 58 57 57 56 53 51 50 49 49 48 47 44 42 40 39 38 37 36 33 31 30 30 29 28 28 27 26 26 26 26 25 26 27 28 30 31 32 33 33 34 34 34 41 46 49 52 54 54 54 54 54 54 54 55 56 56 56 56 56 56 56 56 56 56 56 56 56 55 55 55 55 55 55 55 55 55 55 55 55 55 54 54 54 54 54 54 54 55 55 55 55 55 55 55
57 57 57 58 58 58 57 57 56 55 54 54 53 52 50 49 49 48 46 45 43 41 39 38 36 34 34 31 30 29 29 28 27 25 25 26 26 25 25 25 25 26 27 29 30 31 31 30 30 31 33 39 44 47 51 52 52 52 52 52 52 53 53 54 55 55 55 55 55 55 55 55 54 54 54 54 54 54 54 54 54 54 54 54 54 54 54 53 53 53 53 53 53 53 53 53 54 54 54 54 54 54 54
57 57 57 57 57 56 56 55 54 54 53 52 52 51 50 48 47 46 44 43 41 39 37 35 34 33 32 30 29 28 28 28 27 26 25 26 26 26 25 25 25 25 26 28 29 30 29 28 27 27 28 36 41 44 47 50 51 51 51 51 51 51 52 52 52 53 54 54 54 54 54 53 53 53 53 52 52 52 52 52 53 53 53 53 52 52 52 52 52 52 52 52 52 52 52 52 53 53 53 53 53 53 53
57 57 56 56 56 55 55 54 54 53 53 52 52 50 48 47 45 43 42 41 39 38 36 34 33 33 32 30 29 27 27 28 27 26 26 27 27 26 25 24 24 24 25 27 28 27 27 26 25 25 25 32 38 41 43 47 49 50 50 49 49 49 49 50 50 51 52 52 52 53 53 52 52 52 52 51 51 51 51 51 51 52 52 52 52 51 51 51 51 51 51 51 51 51 52 52 52 52 52 52 52 53 53
57 57 56 55 55 54 54 54 53 53 52 51 49 48 46 44 43 42 40 40 39 37 37 34 34 33 31 30 29 28 29 30 28 27 26 28 27 25 24 23 23 23 24 26 26 26 26 25 25 24 25 28 34 39 41 46 48 49 48 48 48 47 47 48 48 48 49 50 50 51 51 51 51 50 50 50 50 50 50 50 50 50 50 50 50 50 50 50 50 50 50 50 50 50 51 51 51 51 52 52 52 52 52
56 56 55 54 54 53 53 53 52 51 51 49 47 44 43 42 41 40 39 39 38 36 34 33 31 30 29 29 28 29 32 33 31 29 26 26 25 24 23 22 22 22 23 25 27 27 26 25 25 24 25 25 30 36 39 43 47 48 47 47 46 46 45 45 46 46 47 47 48 49 49 49 49 49 48 48 48 48 48 48 48 48 48 49 48 48 48 49 49 49 49 49 49 49 50 50 50 51 51 51 51 52 52
55 55 55 54 53 52 52 50 48 48 47 46 44 42 41 40 39 39 38 37 35 33 31 30 30 30 29 29 28 29 31 33 32 30 26 25 25 24 24 23 21 21 23 25 27 29 27 26 25 24 24 24 28 33 38 41 44 47 46 46 45 45 44 44 44 44 44 45 46 46 47 48 48 47 47 47 47 47 47 47 47 47 47 47 47 47 48 48 48 48 48 48 48 48 49 49 49 50 50 50 51 51 51
55 55 55 53 52 51 49 48 46 46 45 43 42 40 39 37 37 36 36 35 34 33 32 32 32 32 31 31 31 32 31 32 31 30 27 26 25 25 25 24 22 22 23 25 26 27 28 26 25 23 22 21 24 29 35 37 41 44 46 45 45 44 44 43 43 43 43 43 43 44 45 45 46 46 46 45 45 45 45 45 45 46 46 46 46 46 46 46 47 47 47 47 47 48 48 48 48 48 49 49 50 50 50
55 55 54 52 50 48 47 45 44 43 42 41 39 38 37 36 35 35 35 34 33 32 32 32 32 32 32 32 33 33 32 30 30 30 27 26 25 25 25 24 23 23 24 24 25 25 27 26 24 22 21 21 21 23 29 33 37 41 46 46 45 44 43 43 43 43 42 42 42 42 43 43 44 44 44 44 44 44 44 44 44 44 44 45 45 45 45 45 46 46 46 46 46 47 47 47 47 48 48 48 48 49 49
55 54 52 50 48 47 45 44 43 42 40 39 39 37 35 34 33 33 33 33 33 32 31 31 31 32 32 32 32 31 31 30 30 30 28 26 25 25 25 25 25 25 24 23 23 24 26 25 24 22 21 20 20 21 23 29 33 37 40 45 46 45 43 43 43 42 42 41 41 41 41 42 42 43 43 43 43 43 43 43 43 43 44 44 44 44 44 45 45 46 46 46 46 46 46 47 47 47 47 48 48 48 48
55 53 50 48 47 45 43 42 41 40 39 38 37 35 33 33 33 33 32 32 30 29 28 29 30 30 30 31 30 30 30 28 28 28 26 25 24 25 24 24 25 25 25 22 22 23 25 25 24 23 21 20 20 21 23 25 30 34 38 44 47 46 44 43 42 42 41 40 40 40 40 40 41 41 41 42 42 42 42 43 43 43 43 44 44 44 44 45 45 46 46 46 46 46 46 47 47 47 47 47 47 48 48
54 52 48 46 44 43 43 41 39 38 37 37 36 34 33 33 34 34 34 32 30 29 29 29 29 29 30 30 30 29 29 29 29 28 27 25 25 25 25 23 24 25 26 24 23 24 23 24 24 23 21 21 21 21 22 24 26 29 34 40 44 46 45 43 43 43 41 40 40 39 39 39 39 40 40 41 42 42 42 43 43 43 44 44 44 44 44 45 46 46 46 46 46 47 47 47 47 47 47 47 47 47 48
50 48 46 44 43 42 40 39 38 37 35 36 36 35 34 34 34 33 32 30 29 29 31 31 31 31 31 31 31 30 30 30 30 30 29 28 28 28 26 25 24 25 25 25 26 25 24 23 23 23 21 22 21 21 21 24 23 23 27 32 37 40 41 41 42 43 42 40 39 39 39 38 39 39 39 40 41 41 42 42 43 43 44 44 44 44 44 45 46 46 46 46 46 47 47 47 47 47 47 47 47 47 48
46 45 44 43 42 40 39 38 37 36 35 35 35 34 33 33 33 32 32 30 30 31 32 33 33 33 32 31 31 31 30 30 29 28 28 28 29 29 29 28 26 26 25 26 27 26 24 23 23 23 22 22 21 20 21 23 22 21 22 25 28 31 33 34 37 40 43 41 40 39 38 38 38 38 38 39 39 40 41 41 42 42 43 43 43 43 44 45 45 46 46 46 46 46 46 46 46 47 47 47 47 47 48
45 45 45 43 41 39 38 37 37 36 35 34 33 32 31 32 31 31 30 30 30 31 31 31 32 32 31 31 31 31 30 28 28 28 28 27 28 28 29 29 29 28 27 27 26 25 24 23 23 23 22 21 21 20 21 21 20 19 21 22 23 25 26 25 28 33 38 40 41 40 38 37 37 37 37 38 39 39 40 40 40 41 41 41 42 42 43 44 45 45 45 46 46 46 46 46 46 46 46 47 47 47 48
47 47 46 43 41 39 38 36 35 35 33 32 32 31 30 30 30 30 30 29 29 30 29 29 30 30 30 30 30 29 29 28 27 27 27 26 26 27 28 29 29 29 28 28 27 26 25 23 22 22 22 22 22 22 21 20 19 19 21 21 22 23 23 24 25 26 29 33 37 39 39 37 36 36 37 38 38 39 39 39 39 39 39 39 40 41 42 43 43 44 44 45 46 46 46 47 47 47 46 47 47 47 47
48 48 45 42 39 38 36 34 34 33 32 32 32 31 30 30 30 29 28 28 28 29 28 28 28 28 28 28 28 27 28 28 26 25 25 25 25 25 26 28 29 29 28 27 27 27 25 24 23 22 22 22 23 22 21 20 20 20 21 21 22 23 24 26 27 26 25 26 29 33 36 37 36 36 36 37 37 37 37 37 37 37 38 38 39 39 40 41 42 43 44 44 45 46 46 47 47 47 47 47 47 47 47
49 47 43 40 38 36 34 33 32 31 31 31 31 31 30 30 30 29 27 26 27 28 28 27 27 26 26 27 26 25 25 26 25 25 24 23 23 24 25 27 28 28 27 26 27 27 27 25 25 25 25 24 23 22 21 20 20 21 21 21 22 24 27 26 26 25 25 25 25 26 30 34 36 36 36 35 35 35 34 34 35 35 36 37 37 38 39 40 41 42 43 43 44 45 46 47 47 47 47 47 47 47 47
48 45 41 38 36 35 34 33 31 30 30 30 30 30 29 29 29 29 28 27 27 28 28 28 27 26 25 25 25 24 23 23 24 24 23 22 22 23 24 25 26 26 26 26 27 28 28 27 27 28 29 26 24 21 21 21 21 20 20 21 23 25 26 25 24 24 24 25 25 26 26 30 35 38 37 35 35 34 34 34 34 34 34 35 36 37 38 39 40 41 42 43 43 44 45 46 46 46 46 46 46 46 46
47 43 39 36 35 34 33 33 32 31 31 30 29 28 28 28 27 27 28 29 29 29 28 29 28 27 25 25 24 23 23 22 22 22 21 21 21 22 22 24 25 25 26 26 26 27 27 27 28 29 29 27 23 21 20 20 20 20 21 22 24 25 25 25 24 24 24 25 25 25 25 26 29 33 36 36 36 37 37 36 34 33 33 34 34 36 37 38 39 39 40 41 43 43 44 44 45 45 45 46 46 46 46
43 39 37 35 33 32 32 33 33 32 32 30 28 27 26 26 26 26 28 30 30 29 28 29 28 27 26 25 23 23 22 22 22 22 21 21 21 22 23 25 26 25 24 25 26 26 26 27 27 28 27 26 24 22 20 21 20 20 21 22 24 25 24 25 25 25 25 25 25 25 26 26 25 25 26 30 31 33 37 37 35 33 32 33 34 34 35 36 37 38 39 40 41 42 43 43 43 44 44 45 45 45 45
39 37 35 33 32 32 32 33 33 33 33 30 29 27 26 26 26 27 27 28 28 28 26 27 28 28 26 25 23 22 21 21 21 22 23 22 23 24 25 26 26 26 24 25 25 25 26 26 27 27 27 25 24 23 22 24 23 21 20 21 22 25 24 25 25 25 24 24 24 25 27 26 23 19 18 21 21 23 28 33 34 33 32 32 33 34 34 34 35 36 37 39 39 40 41 42 43 43 44 45 45 45 45
37 35 34 32 32 32 32 33 34 34 33 30 28 26 25 26 27 27 26 26 27 26 25 25 26 27 28 27 24 21 20 20 21 21 22 23 23 25 29 27 26 26 25 25 25 25 26 26 26 26 25 24 24 23 22 25 25 24 21 21 21 23 24 25 25 24 22 23 22 21 22 20 18 16 18 19 19 19 20 26 31 33 32 32 32 32 33 33 34 34 36 37 38 39 40 41 42 43 44 44 44 44 44
35 34 32 31 31 31 31 32 34 34 33 30 27 25 24 25 25 25 26 27 27 27 26 27 27 27 27 25 23 21 20 20 20 21 21 21 22 24 25 25 25 25 26 25 24 25 28 25 24 25 24 24 23 22 22 24 24 24 23 22 21 20 20 21 21 21 21 21 21 19 17 17 16 16 17 19 19 18 18 20 25 30 33 33 32 32 32 32 33 33 34 36 37 38 39 40 41 42 43 44 44 44 44
35 33 31 31 30 30 31 32 33 33 32 29 26 24 24 24 25 26 27 28 28 28 28 29 27 25 23 23 22 21 21 20 20 21 22 20 19 20 21 23 24 25 26 25 25 26 27 24 23 24 24 23 22 22 22 22 22 22 22 21 20 18 16 17 17 17 19 18 17 16 16 16 16 16 16 18 18 18 18 19 21 24 30 32 33 32 32 32 32 33 33 34 36 37 38 39 40 42 43 43 43 43 43
33 31 30 30 30 30 30 30 31 31 30 27 26 25 25 26 28 29 28 27 27 27 29 28 27 25 23 23 22 22 21 20 20 21 21 18 17 17 18 20 22 24 25 26 26 25 24 23 23 23 23 23 22 22 21 21 21 21 22 21 20 19 16 17 17 17 17 16 15 15 17 16 16 16 16 18 18 18 18 19 19 21 23 25 28 31 32 34 34 33 33 33 34 35 37 38 39 40 41 42 42 42 43
32 31 30 30 30 30 30 30 30 30 29 30 28 27 28 29 30 28 25 24 25 26 29 27 27 27 25 24 23 23 22 21 20 19 18 17 18 19 19 20 20 21 21 24 26 27 25 23 22 21 22 22 22 22 22 22 20 20 22 21 20 19 18 19 20 18 16 15 14 15 17 16 16 16 17 17 17 18 18 18 18 19 19 19 21 23 26 27 31 34 33 33 33 34 35 36 38 39 40 40 41 42 43
31 31 30 30 30 30 30 30 30 29 30 29 26 25 26 25 25 26 25 23 23 25 27 26 26 26 27 26 25 24 22 22 21 20 19 18 19 21 24 23 19 15 14 16 22 28 27 25 24 24 21 18 18 20 21 21 20 20 20 21 21 19 19 21 21 20 17 15 14 13 14 14 14 15 17 17 17 17 18 18 18 19 18 19 21 24 25 28 32 35 34 33 33 33 33 34 36 37 39 39 40 41 43
31 31 31 30 30 30 31 30 29 28 29 27 26 25 27 26 25 25 25 25 25 25 27 26 25 25 25 26 25 24 23 22 21 21 22 21 20 21 23 20 16 13 14 13 16 20 25 21 19 18 17 15 16 19 21 20 20 20 21 20 20 20 20 21 21 21 18 16 14 13 14 14 15 16 17 18 18 19 20 19 19 19 19 18 20 21 22 27 34 39 38 35 34 32 32 33 34 35 37 38 40 41 42
31 31 30 30 30 30 30 28 28 28 29 29 28 27 26 24 24 24 24 24 24 25 25 25 24 23 24 24 24 25 25 24 23 22 23 24 22 20 18 17 17 17 19 16 13 13 16 13 12 11 14 17 19 21 21 20 20 20 21 19 20 21 20 20 20 19 18 16 15 15 15 15 16 16 17 18 18 19 18 19 19 19 19 19 19 20 21 25 32 38 38 38 37 35 33 32 32 33 35 37 39 40 42
31 30 30 30 29 29 28 28 29 30 31 31 30 27 25 23 23 23 23 23 23 24 23 23 23 24 24 23 23 24 25 24 23 23 23 25 24 22 19 18 19 19 17 16 13 11 11 12 12 12 15 19 20 20 20 21 21 23 24 22 21 19 19 20 19 19 18 18 18 17 16 16 16 17 17 18 19 19 19 20 20 20 20 19 20 22 24 29 31 32 32 34 36 37 34 32 32 33 34 36 38 40 41
30 29 29 29 28 28 28 29 29 30 31 30 29 27 25 24 24 23 22 23 24 24 23 23 23 24 25 25 24 24 25 25 25 25 24 24 25 25 23 20 16 14 12 11 11 12 13 14 13 13 14 19 19 17 18 20 20 20 24 23 21 19 19 20 20 19 18 19 19 19 19 19 19 18 18 18 19 20 21 21 21 19 19 18 19 21 21 22 23 25 26 27 30 33 34 32 32 33 34 36 38 39 40
30 29 27 27 28 29 29 29 29 29 30 30 28 27 26 25 24 23 22 23 24 24 24 24 24 24 26 27 26 25 24 25 26 28 27 25 25 25 22 21 20 17 16 15 14 15 16 17 15 13 14 19 20 20 20 20 19 20 21 20 20 19 20 20 20 19 19 19 19 19 20 21 21 20 19 19 19 20 20 20 19 20 20 20 20 20 19 20 21 24 25 26 26 29 34 32 32 33 35 37 38 39 40
30 29 26 26 28 29 30 30 29 29 30 30 29 27 26 25 24 24 23 23 23 24 24 24 25 25 26 28 28 26 23 22 24 27 30 28 25 23 21 23 24 23 21 21 20 19 18 17 16 15 14 16 18 21 22 20 19 19 19 20 20 20 19 18 17 18 18 19 19 19 19 20 19 19 19 19 19 19 19 18 19 20 21 22 21 20 19 21 25 27 25 27 29 31 34 32 32 34 36 37 38 39 39
29 29 27 29 29 30 30 29 29 29 30 30 29 27 26 25 24 24 23 22 23 24 24 24 25 26 28 28 28 26 23 22 23 24 26 28 26 24 21 22 23 24 23 24 24 22 20 18 17 16 16 14 15 17 22 21 20 19 19 20 20 20 19 17 16 16 17 18 18 18 19 18 19 19 20 20 20 20 19 20 20 21 22 22 21 21 21 26 29 30 31 34 36 35 33 32 33 34 36 37 38 38 39
30 29 28 29 29 29 29 28 28 29 30 30 29 27 25 24 25 25 24 22 23 25 24 24 25 27 29 28 27 26 25 25 25 25 24 25 25 25 25 23 22 22 21 22 22 22 22 21 19 19 18 17 16 15 16 19 20 20 19 19 20 19 19 17 17 18 18 19 19 18 18 18 19 19 19 19 20 20 20 22 22 22 23 22 21 21 22 23 25 26 29 32 34 34 30 31 33 34 35 36 37 38 38
29 29 29 29 29 29 28 28 28 29 30 30 29 27 25 25 24 24 23 22 23 24 25 25 26 27 28 28 27 27 27 26 25 25 25 23 23 24 25 23 21 21 21 21 21 22 23 22 22 21 21 20 18 16 14 15 16 17 18 19 19 19 18 18 19 19 19 19 19 19 18 18 18 18 18 18 19 20 20 21 21 22 21 21 21 21 21 22 22 22 23 26 30 33 30 31 32 34 34 35 36 37 38